Regional Weather Roundup
Issued by NWS

Home | Current Version | Previous Version | Text Only | Print | Product List | Glossary On
Versions: 1 2 3 4 5 6 7 8 9 10 11 12 13 14 15 16 17 18 19 20 21 22 23 24 25 26 27 28 29 30 31 32 33 34 35 36 37 38 39 40 41 42 43 44 45 46 47 48 49 50
000
ASUS43 KMKX 240421
RWRWI

WISCONSIN REGIONAL WEATHER ROUNDUP
NATIONAL WEATHER SERVICE MILWAUKEE/SULLIVAN WI
1100 PM CDT WED AUG 23 2017

NOTE: "FAIR" INDICATES FEW OR NO CLOUDS BELOW 12,000 FEET WITH NO
SIGNIFICANT WEATHER AND/OR OBSTRUCTIONS TO VISIBILITY.

WIZ001-002-006>008-014>016-023>028-240500-
NORTHWEST WISCONSIN

CITY           SKY/WX    TMP DP  RH WIND       PRES   REMARKS
SUPERIOR ARPT  LGT RAIN  55  53  92 CALM      30.09F
ASHLAND        CLOUDY    53  51  93 CALM      30.10R
HAYWARD        LGT RAIN  56  52  86 N3        30.11R
SIREN          LGT RAIN  57  53  84 N6        30.11R
CUMBERLAND     CLOUDY    55  52  88 CALM      30.09R
RICE LAKE      CLOUDY    56  55  94 CALM      30.10R
CHETEK         CLOUDY    56  53  89 CALM      30.08R
LADYSMITH      CLOUDY    56  51  81 NE3       30.11R
EAU CLAIRE     PTCLDY    54  51  90 E3        30.06R
MENOMONIE      CLOUDY    58  53  84 CALM      30.07S
NEW RICHMOND   CLOUDY    57  51  81 CALM      30.09R
OSCEOLA        CLOUDY    59  55  85 CALM      30.11R
$$

WIZ003>005-009-010-017-018-240500-
NORTH CENTRAL WISCONSIN

CITY           SKY/WX    TMP DP  RH WIND       PRES   REMARKS
MANITOWISH WTR CLOUDY    45  45 100 CALM      30.10R
ARBOR VITAE    MOCLDY    49  45  88 CALM      30.10R
WOODRUFF       MOCLDY    49  45  88 CALM      30.10R
RHINELANDER    CLEAR     48  44  86 N3        30.09S
EAGLE RIVER    CLOUDY    44  43  97 CALM      30.09S
LAND O LAKES   PTCLDY    43  42  97 CALM      30.11S
PHILLIPS       CLOUDY    51  48  90 CALM      30.10R
TOMAHAWK         N/A     46  44  93 CALM      30.09S
MEDFORD        PTCLDY    49  46  87 NE5       30.08S
MERRILL        CLOUDY    50  45  81 CALM      30.09R
$$

WIZ029-030-035-036-043>047-240500-
CENTRAL WISCONSIN

CITY           SKY/WX    TMP DP  RH WIND       PRES   REMARKS
WAUSAU         CLEAR     55  43  63 CALM      30.06S
MOSINEE        CLEAR     54  45  71 N7        30.08S
MARSHFIELD     CLEAR     56  46  69 NE7       30.06S
STEVENS POINT  CLEAR     52  47  84 NE5       30.07S
WAUPACA        CLEAR     58  50  73 N6        30.06S
WAUTOMA        NOT AVBL
WISC RAPIDS    CLEAR     56  49  77 NE6       30.07S
CAMP DOUGLAS   CLEAR     48  46  93 CALM      30.05S
$$

WIZ011>013-019>022-031-037>040-048>050-240500-
NORTHEAST WISCONSIN

CITY           SKY/WX    TMP DP  RH WIND       PRES   REMARKS
ANTIGO         CLEAR     47  45  90 CALM      30.09R
SHAWANO        CLOUDY    60  47  61 NE12      30.07R
OCONTO         CLEAR     55  45  67 NE8       30.07R
STURGEON BAY   NOT AVBL
GREEN BAY      MOCLDY    58  51  78 N9        30.05R
MANITOWOC      PTCLDY    56  54  93 NW3       30.04S
APPLETON       PTCLDY    57  46  67 N12       30.03S
CLINTONVILLE   CLEAR     55  46  71 N6        30.06S
OSHKOSH        NOT AVBL
$$

WIZ032>034-041-042-053>061-240500-
SOUTHWEST WISCONSIN

CITY           SKY/WX    TMP DP  RH WIND       PRES   REMARKS
LA CROSSE      CLEAR     61  55  81 E3        30.05S
SPARTA         CLEAR     49  49  99 CALM      30.07S
VIROQUA        CLEAR     58  52  80 CALM      30.07S
BOSCOBEL       NOT AVBL
PRAIRIE DU CHI CLEAR     57  53  88 CALM      30.06R
PLATTEVILLE    CLEAR     58  55  91 N3        30.06S
$$

WIZ056-057-062-063-064-067-068-240500-
SOUTH CENTRAL WISCONSIN

CITY           SKY/WX    TMP DP  RH WIND       PRES   REMARKS
REEDSBURG      CLEAR     55  55  98 CALM      30.06S
BARABOO/DELLS  CLEAR     54  49  84 CALM      30.06S
LONE ROCK      CLEAR     56  54  93 CALM      30.06R
MINERAL POINT  CLEAR     59  55  88 CALM      30.06S
MADISON        NOT AVBL
MIDDLETON        N/A     55  55 100 CALM      30.06S VSB 1/2
WATERTOWN      CLEAR     55  55 100 CALM      30.04S
MONROE         CLEAR     63  50  63 NW6       30.05S
JANESVILLE     CLEAR     55  55 100 CALM      30.04S
$$

WIZ051-052-058>065-066-070>072-240500-
SOUTHEAST WISCONSIN

CITY           SKY/WX    TMP DP  RH WIND       PRES   REMARKS
MILWAUKEE      PTCLDY    64  56  75 SW5       30.03S
WAUKESHA       CLEAR     54  52  94 CALM      30.05R
MILWAUKEE/TIMM CLEAR     59  52  77 CALM      30.04S
RACINE         CLEAR     60  57  89 CALM      30.05R
KENOSHA        CLEAR     57  55  93 CALM      30.03S
FOND DU LAC    PTCLDY    59  50  72 NW7       30.03S
SHEBOYGAN      PTCLDY    57  57 100 CALM      30.03S
WEST BEND      CLEAR     52  52 100 CALM      30.04R
JUNEAU         CLOUDY    56  52  87 CALM      30.05S
$$

LSZ147-162-240500-
LAKE SUPERIOR

STATION/POSITION TIME  TEMP    WIND        PRES    WAVE
                       AIR SEA DIR/SP/G            HT/PER
                 (UTC) (F)     (DEG/KT/KT) (MB)    (FT/S)
W MID LAKE BUOY  0350   59 59  290/  6/  8 1018.7R   1
DEVILS ISLAND    0400   60     100/  5/  5 1019.1R
PORT WING        0140   64     120/  5/  8 1017.9
SAXON HARBOR     0330   53     180/  5/  7 1018.3R
$$

LMZ867-665-643>646-240500-
LAKE MICHIGAN

STATION/POSITION TIME  TEMP    WIND        PRES    WAVE
                       AIR SEA DIR/SP/G            HT/PER
                 (UTC) (F)     (DEG/KT/KT) (MB)    (FT/S)
S GREEN BAY BUOY 0400   63 70   60/ 17/ 21 1017.6
N MID LAKE BUOY  0350   58 66  360/ 17/ 21 1018.3R   3/ 5
NORTHPORT PIER   0340   59     360/ 13/ 15 1017.9S
KEWAUNEE LAKESHO 0354   59     300/  3/  3 1016.4R
SHEBOYGAN LAKESH 0400   65     180/  4/  5 1016.4S
PORT WASHINGTON  0340   64     280/  3/  5 1017.3S
ATWATER BUOY     0309   67 69  220/  6/  8 1016.9R
MILWAUKEE LAKESH 0400   66     230/  5/  6   N/A
S MID LAKE BUOY  0350   67 71  170/  2/  4 1017.0R   2/ 5
KENOSHA   LAKESH 0400   66     230/  4/  5 1016.9
$$

TC  - TEMPERATURE IN CELSIUS
VSB - VISIBILITY IN STATUTE MILES
WCI - WIND CHILL INDEX
HX  - HEAT INDEX





USA.gov is the U.S. government's official web portal to all federal, state and local government web resources and services.